[[{"header":{"parameterUnit":"m.s-1","parameterCategory":1,"la1":30.2991,"la2":30.254,"lo1":-89.0895,"lo2":-89.0444,"dy":0.0017,"dx":0.0017,"nx":28,"ny":28,"refTime":"2024-08-12T03:00:00:Z","depth":0,"parameterNumber":2,"parameterNumberName":"U-component_of_WINDS"},"data":[0,0,0,0,0,0,0,0,0,0,0,0,0,0,0,0,0,0,0,0,0,0,0,0,0,0,0,0,0,0,0,0,0,0,0,0,0,0,0,0,0,0,0,0,0,0,0,0,0,0,0,0,0,0,0,0,0,0,1.1687,1.1689,0,1.1808,1.181,1.1811,1.1784,1.1782,1.1779,1.1777,1.1908,1.1914,1.1919,0,0,0,0,0,0,0,0,0,0,0,0,0,1.144,1.1444,1.1687,1.1689,1.169,1.1808,1.181,1.1811,1.1784,1.1782,1.1779,1.1776,1.1906,1.1913,1.192,0,0,0,0,0,0,0,0,0,0,0,0,0,1.1553,1.1446,1.1687,1.1691,1.1692,1.1808,1.181,1.1812,1.1785,1.1782,1.1778,1.1775,1.1904,1.1912,1.1921,1.2042,0,0,1.1946,1.195,0,0,0,0,0,0,0,0,1.1546,1.1562,1.1689,1.1691,1.1693,1.1777,1.177,1.1889,1.1786,1.175,1.1777,1.1773,1.1868,1.1879,1.191,1.2048,1.2054,1.1947,1.1952,1.1956,1.1958,0,0,0,0,0,0,0,1.1538,1.1557,1.1735,1.1691,1.1693,1.1689,1.1701,1.1793,1.1827,1.1753,1.1751,1.1766,1.1868,1.1902,1.1912,1.2056,1.1947,1.1954,1.196,1.1963,1.23,1.2303,0,0,0,0,0,0,1.1528,1.155,1.1731,1.1739,1.1609,1.1696,1.171,1.1754,1.1826,1.1833,1.1768,1.1764,1.1889,1.1903,1.1917,1.2063,1.1956,1.1964,1.1969,1.2296,1.2301,1.2305,0,0,0,0,0,0,1.1523,1.1544,1.1727,1.1644,1.1667,1.1704,1.1754,1.1758,1.1791,1.1837,1.1844,1.1795,1.1887,1.1905,1.201,1.2067,1.1968,1.1975,1.2291,1.2297,1.2303,1.2356,0,0,0,0,0,0,1.1516,1.1543,1.1587,1.1645,1.1671,1.1816,1.1757,1.1763,1.1805,1.18,1.1865,1.1872,1.1885,1.1998,1.2019,1.2077,1.1982,1.2286,1.2294,1.2301,1.235,1.2363,1.2375,0,0,0,0,0,1.1507,1.1599,1.159,1.1612,1.1728,1.1819,1.1834,1.1846,1.1809,1.1856,1.1886,1.187,1.2058,1.2009,1.2032,1.2094,1.2283,1.2292,1.23,1.2344,1.2361,1.2375,0,0,0,0,0,0,1.1549,1.1607,1.1597,1.171,1.176,1.1814,1.1873,1.1863,1.1926,1.1919,1.1933,1.1947,1.2055,1.2085,1.203,1.2215,1.2166,1.2179,1.2191,1.2207,1.2219,1.2209,1.1989,0,0,0,0,0,1.1571,1.1639,1.1686,1.1782,1.1807,1.1836,1.1876,1.188,1.1933,1.1955,1.1993,1.2047,1.2118,1.2164,1.2232,1.2355,1.2369,1.2409,1.2421,1.2431,1.2443,1.251,1.2528,1.2334,1.2333,1.2333,0,0,1.1618,1.1658,1.17,1.1791,1.183,1.1901,1.1854,1.1931,1.1985,1.1968,1.2068,1.2098,1.216,1.2273,1.2326,1.2302,1.25,1.2442,1.245,1.2456,1.2521,1.2539,1.2555,1.2339,1.2338,1.2337,0,0,1.174,1.1777,1.186,1.1899,1.1958,1.1977,1.1997,1.2054,1.2072,1.2173,1.2161,1.2227,1.2349,1.2393,1.2431,1.257,1.2559,1.2593,1.2658,1.2723,1.2739,1.2752,1.2801,1.2819,1.2604,1.2605,1.2605,0,1.1791,1.1896,1.1904,1.1983,1.2023,1.2009,1.2094,1.2134,1.2213,1.2242,1.2214,1.2367,1.2408,1.2531,1.2565,1.2597,1.2621,1.2585,1.2735,1.2749,1.2762,1.2809,1.2828,1.2608,1.2608,1.2607,1.2607,0,1.1956,1.2029,1.209,1.2163,1.2212,1.2293,1.2316,1.2364,1.2365,1.2387,1.2491,1.2539,1.2616,1.2647,1.2649,1.2772,1.2755,1.2731,1.2682,1.2784,1.2828,1.2847,1.2613,1.2612,1.2611,1.261,0,0,1.2106,1.2183,1.2205,1.2239,1.2303,1.2361,1.2443,1.2517,1.2557,1.2614,1.2683,1.2787,1.2765,1.2809,1.2817,1.2874,1.298,1.2843,1.2845,1.2866,1.3118,1.3134,1.3155,1.2973,1.2977,1.298,1.3113,0,1.2232,1.2373,1.2384,1.2512,1.258,1.2568,1.264,1.2689,1.2712,1.2775,1.2803,1.2875,1.2842,1.2868,1.2924,1.2955,1.3031,1.2946,1.3039,1.3043,1.3022,1.3178,1.3195,1.3318,1.313,1.3133,1.3135,0,1.2397,1.2456,1.259,1.2645,1.2674,1.2738,1.2806,1.2866,1.2922,1.2935,1.2984,1.2984,1.307,1.3018,1.3138,1.308,1.3119,1.314,1.3146,1.3154,1.3094,1.319,1.3358,1.3376,1.3163,1.3161,1.3159,0,1.2492,1.2604,1.2699,1.2728,1.2795,1.284,1.2871,1.2923,1.2966,1.3027,1.3056,1.3127,1.3166,1.3222,1.3242,1.3202,1.3361,1.331,1.3375,1.3375,1.3408,1.3405,1.3583,1.3435,1.3435,1.3435,1.3434,0,1.2631,1.2713,1.2742,1.28,1.2893,1.2906,1.2998,1.3027,1.3073,1.3138,1.3134,1.3196,1.3219,1.3285,1.3302,1.3398,1.3416,1.343,1.3433,1.343,1.3428,1.3454,1.3446,1.344,1.3439,1.3438,1.3437,0,1.2751,1.2773,1.2876,1.293,1.2946,1.3012,1.306,1.3117,1.314,1.3222,1.3243,1.3279,1.3357,1.3382,1.3477,1.3489,1.3601,1.3597,1.3581,1.3581,1.3644,1.3637,1.3844,1.3872,1.3707,1.3709,1.371,0,1.2837,1.2899,1.2961,1.3003,1.3034,1.3102,1.3146,1.3163,1.3209,1.3278,1.3327,1.3403,1.3465,1.359,1.3627,1.3699,1.3697,1.3765,1.3708,1.3702,1.3697,1.3692,1.3698,1.3775,1.3776,1.3778,1.3779,0,1.2987,1.2995,1.3057,1.3124,1.3176,1.323,1.3282,1.3318,1.3343,1.3395,1.3473,1.3521,1.3617,1.3693,1.3767,1.3801,1.3795,1.3797,1.3815,1.3811,1.3799,1.3805,1.3608,1.3792,1.379,1.3789,1.3789,1.3788,1.3092,1.3147,1.3198,1.3268,1.3309,1.3358,1.3414,1.3443,1.3508,1.3585,1.3593,1.3677,1.3733,1.3831,1.3868,1.3936,1.3917,1.3944,1.3951,1.3957,1.3961,1.3789,1.395,1.395,1.3949,1.3949,1.3949,0,1.324,1.3273,1.3337,1.3409,1.3465,1.3453,1.351,1.3558,1.3631,1.3683,1.3743,1.3833,1.3908,1.395,1.4025,1.4071,1.407,1.409,1.4086,1.4094,1.3974,1.395,1.4089,1.4089,1.4089,1.4089,1.4089,1.4089,1.3324,1.3416,1.3431,1.3544,1.3577,1.3658,1.3692,1.3737,1.3778,1.3878,1.3939,1.3966,1.4014,1.4093,1.4161,1.4171,1.4199,1.422,1.4229,1.4117,1.4102,1.4088,1.4065,1.4227,1.4227,1.4343,1.4344,1.4345]},{"header":{"parameterUnit":"m.s-1","parameterCategory":1,"la1":30.2991,"la2":30.254,"lo1":-89.0895,"lo2":-89.0444,"dy":0.0017,"dx":0.0017,"nx":28,"ny":28,"refTime":"2024-08-12T03:00:00:Z","depth":0,"parameterNumber":3,"parameterNumberName":"V-component_of_WINDS"},"data":[0,0,0,0,0,0,0,0,0,0,0,0,0,0,0,0,0,0,0,0,0,0,0,0,0,0,0,0,0,0,0,0,0,0,0,0,0,0,0,0,0,0,0,0,0,0,0,0,0,0,0,0,0,0,0,0,0,0,3.012,3.012,0,3.0105,3.0105,3.0105,3.0037,3.0036,3.0034,3.0033,3.0017,3.0018,3.0019,0,0,0,0,0,0,0,0,0,0,0,0,0,3.0087,3.0088,3.012,3.012,3.0119,3.0105,3.0105,3.0105,3.0038,3.0036,3.0034,3.0032,3.0017,3.0018,3.0019,0,0,0,0,0,0,0,0,0,0,0,0,0,3.009,3.0088,3.012,3.0084,3.0081,3.0105,3.0105,3.0105,3.0038,3.0036,3.0033,3.0031,3.0016,3.0018,3.0019,3.0077,0,0,3.0024,3.0025,0,0,0,0,0,0,0,0,3.009,3.0091,3.009,3.0087,3.0083,3.0071,3.0088,3.0095,3.0039,3.0054,3.0033,3.003,3.0037,3.0036,3.0039,3.0076,3.0076,3.0024,3.0025,3.0026,3.0026,0,0,0,0,0,0,0,3.009,3.0091,3.0114,3.009,3.0086,3.0068,3.0066,3.0089,3.0059,3.0053,3.0048,3.0047,3.0034,3.0038,3.0038,3.0075,3.0024,3.0026,3.0027,3.0027,3.0155,3.0157,0,0,0,0,0,0,3.0095,3.0092,3.0114,3.0114,3.0081,3.0071,3.0068,3.0077,3.0059,3.0053,3.0049,3.0044,3.0036,3.0036,3.0037,3.01,3.0026,3.0027,3.0028,3.0153,3.0156,3.0158,0,0,0,0,0,0,3.0094,3.0097,3.0115,3.0101,3.0102,3.0074,3.0084,3.0078,3.0081,3.0056,3.005,3.0058,3.0034,3.0035,3.0067,3.0098,3.0028,3.003,3.015,3.0154,3.0157,3.0228,0,0,0,0,0,0,3.0094,3.0098,3.012,3.0102,3.0103,3.0145,3.0086,3.0079,3.0084,3.0077,3.0062,3.0058,3.0032,3.0065,3.0068,3.0099,3.0031,3.0147,3.0151,3.0156,3.0222,3.0233,3.0243,0,0,0,0,0,3.0093,3.0141,3.0121,3.0124,3.013,3.0147,3.0148,3.0118,3.0087,3.0108,3.0092,3.0058,3.0096,3.0069,3.0072,3.0104,3.0144,3.015,3.0155,3.0218,3.0231,3.0243,0,0,0,0,0,0,3.0163,3.0138,3.0116,3.016,3.0156,3.0136,3.0162,3.0134,3.0138,3.0132,3.0094,3.0092,3.0128,3.012,3.009,3.0157,3.0114,3.0121,3.016,3.0173,3.0183,3.0182,3.0032,0,0,0,0,0,3.0184,3.02,3.0178,3.0219,3.0218,3.0191,3.0197,3.0174,3.0169,3.0167,3.0153,3.0148,3.0158,3.0166,3.0174,3.0222,3.0216,3.0246,3.0256,3.0265,3.0269,3.029,3.0302,3.0176,3.0176,3.0176,0,0,3.0227,3.0215,3.0228,3.0233,3.0227,3.0243,3.019,3.021,3.0221,3.017,3.0197,3.0187,3.018,3.0219,3.0236,3.0213,3.0303,3.0272,3.0279,3.0279,3.0297,3.0309,3.032,3.018,3.0179,3.0179,0,0,3.0312,3.0307,3.0338,3.0333,3.0325,3.0307,3.0314,3.0298,3.0289,3.0317,3.0277,3.0291,3.031,3.0305,3.0305,3.0388,3.0356,3.0392,3.0444,3.0465,3.0475,3.0483,3.0509,3.0519,3.0398,3.0398,3.0398,0,3.0365,3.0389,3.0358,3.038,3.0382,3.0336,3.0367,3.0364,3.0359,3.0361,3.0337,3.0358,3.0351,3.0386,3.0406,3.0409,3.0415,3.0392,3.0476,3.0484,3.0492,3.0515,3.0526,3.0402,3.0402,3.0401,3.0401,0,3.0453,3.047,3.0497,3.0492,3.0498,3.0525,3.0496,3.0506,3.0483,3.0466,3.0493,3.0483,3.0486,3.0494,3.0473,3.0526,3.0512,3.0483,3.0438,3.0508,3.053,3.0539,3.0408,3.0406,3.0405,3.0404,0,0,3.058,3.0558,3.0567,3.0563,3.0551,3.0563,3.0588,3.0591,3.0598,3.0597,3.0614,3.0631,3.0603,3.0603,3.0581,3.06,3.0661,3.0568,3.0567,3.0582,3.0715,3.0734,3.0746,3.0642,3.0644,3.0645,3.0714,0,3.0658,3.0696,3.0669,3.0712,3.0725,3.0682,3.0702,3.0697,3.0682,3.0691,3.0675,3.0686,3.0651,3.065,3.0667,3.065,3.0687,3.0646,3.0655,3.0655,3.0654,3.0757,3.0778,3.0844,3.0723,3.0725,3.0726,0,3.0753,3.0754,3.0798,3.0781,3.0785,3.0804,3.0804,3.0814,3.0806,3.0794,3.0794,3.0766,3.0787,3.0746,3.0772,3.0745,3.0747,3.074,3.0742,3.0738,3.0692,3.0753,3.0865,3.0873,3.074,3.0738,3.0737,0,3.0835,3.0849,3.0876,3.0875,3.0856,3.087,3.0863,3.0853,3.0856,3.0856,3.0857,3.086,3.0861,3.0864,3.0837,3.081,3.0865,3.0823,3.0853,3.0854,3.0864,3.0863,3.0974,3.0873,3.0873,3.0872,3.0872,0,3.0922,3.095,3.0912,3.0929,3.0958,3.0926,3.0955,3.0944,3.0935,3.0947,3.0912,3.0924,3.089,3.0898,3.0878,3.0901,3.0903,3.0892,3.0885,3.0893,3.0893,3.0891,3.0884,3.0875,3.0874,3.0874,3.0874,0,3.1018,3.0994,3.102,3.1,3.0996,3.1018,3.1,3.1014,3.0998,3.1014,3.1016,3.0989,3.0997,3.0972,3.0976,3.0962,3.0995,3.0983,3.0997,3.0992,3.1022,3.1018,3.1132,3.1144,3.1039,3.104,3.1041,0,3.1072,3.1092,3.1075,3.108,3.1074,3.1085,3.1087,3.1057,3.1061,3.1053,3.1067,3.1072,3.1074,3.1088,3.1069,3.1072,3.1057,3.1097,3.1057,3.1063,3.1053,3.105,3.1051,3.1104,3.1105,3.1106,3.1107,0,3.1171,3.1158,3.1163,3.1164,3.1168,3.1168,3.1164,3.1171,3.1138,3.1145,3.1152,3.1154,3.1157,3.1162,3.116,3.1152,3.1123,3.112,3.1127,3.1132,3.1138,3.1131,3.1015,3.1117,3.1116,3.1115,3.1115,3.1114,3.1245,3.1259,3.1248,3.1254,3.1249,3.1247,3.1257,3.1242,3.1248,3.1248,3.123,3.1241,3.1231,3.1225,3.122,3.1227,3.1208,3.1219,3.122,3.1222,3.1226,3.1141,3.1227,3.1227,3.1226,3.1226,3.1226,0,3.1338,3.1328,3.1335,3.1331,3.1336,3.131,3.1305,3.131,3.1319,3.1313,3.1315,3.1323,3.1327,3.1308,3.1309,3.1318,3.1305,3.1319,3.1316,3.1314,3.1244,3.1237,3.133,3.133,3.133,3.133,3.133,3.133,3.1386,3.1408,3.1394,3.1412,3.1403,3.1412,3.1411,3.1408,3.1402,3.1412,3.1415,3.1403,3.1391,3.1391,3.1393,3.1387,3.1388,3.1406,3.1395,3.133,3.1319,3.131,3.1302,3.1407,3.1407,3.1464,3.1464,3.1465]}]]